Ft. Stewart, GA

7:14 AM EST on January 16, 2018 (GMT -0500)
Wright Army Air Field

Weather History for KLHW - November, 2014

Change the Weather History Date:

Saturday, November 15, 2014

  Actual Average Record
Temperature  
Mean Temperature 44 °F -  
Max Temperature 55 °F 70 °F 84 °F (1993)
Min Temperature 33 °F 45 °F 27 °F (1969)
Degree Days  
Heating Degree Days 21    
Moisture  
Dew Point 30 °F    
Average Humidity 59    
Maximum Humidity 87    
Minimum Humidity 33    
Precipitation  
Precipitation 0.00 in - - ()
Sea Level Pressure  
Sea Level Pressure 30.32 in    
Wind  
Wind Speed 5 mph (NE)    
Max Wind Speed 12 mph    
Max Gust Speed 17 mph    
Visibility 10 miles    
Events      
Averages and records for this station are not official NWS values.
T = Trace of Precipitation, MM = Missing Value Source: NWS Daily Summary

Daily Weather History Graph

Daily Weather History Graph

Search for Another Location

Airport or City:

Trip Planner

Search our weather history database for the weather conditions in past years. The results will help you decide how hot, cold, wet, or windy it might be!

Date:

Astronomy

Nov. 15, 2014 Rise Set
Actual Time 6:54 AM EST 5:26 PM EST
Civil Twilight 6:28 AM EST 5:52 PM EST
Nautical Twilight 5:59 AM EST 6:21 PM EST
Astronomical Twilight 5:30 AM EST 6:50 PM EST
Moon 12:29 AM EST (11/15) 1:26 PM EST (11/15)
Length of Visible Light 11h 23m
Length of Day
10h 31m
Last Quarter, 40% of the Moon is Illuminated
Nov 15
Last Quarter
Nov 22
New
Nov 29
First Quarter
Dec 6
Full
Dec 14
Last Quarter

Hourly Weather History & Observations

Time (EST) Temp. Windchill Dew Point Humidity Pressure Visibility Wind Dir Wind Speed Gust Speed Precip Events Conditions
12:58 AM 38.5 °F 34.1 °F 33.8 °F 83% 30.25 in 10.0 mi NE 5.8 mph - N/A   Clear
1:58 AM 36.9 °F - 32.7 °F 85% 30.25 in 10.0 mi NNE 1.2 mph - N/A   Clear
2:58 AM 35.4 °F - 31.5 °F 85% 30.26 in 10.0 mi Calm Calm - N/A   Clear
3:58 AM 33.8 °F - 30.2 °F 87% 30.29 in 10.0 mi Calm Calm - N/A   Clear
4:58 AM 34.0 °F 28.8 °F 29.3 °F 83% 30.30 in 10.0 mi North 5.8 mph - N/A   Clear
5:58 AM 33.6 °F 26.8 °F 28.6 °F 82% 30.32 in 10.0 mi North 8.1 mph - N/A   Clear
6:58 AM 33.1 °F 26.1 °F 26.6 °F 77% 30.34 in 10.0 mi North 8.1 mph - N/A   Clear
7:58 AM 34.5 °F 27.3 °F 25.5 °F 70% 30.38 in 10.0 mi North 9.2 mph 17.3 mph N/A   Clear
8:58 AM 38.5 °F 31.6 °F 24.8 °F 58% 30.39 in 10.0 mi NNE 10.4 mph - N/A   Clear
9:58 AM 43.0 °F 37.7 °F 23.5 °F 46% 30.39 in 10.0 mi NNE 9.2 mph - N/A   Clear
10:58 AM 47.5 °F - 25.3 °F 42% 30.39 in 10.0 mi NNE 11.5 mph - N/A   Clear
11:58 AM 51.1 °F - 26.6 °F 39% 30.36 in 10.0 mi NNE 8.1 mph - N/A   Clear
12:58 PM 53.2 °F - 27.9 °F 38% 30.34 in 10.0 mi North 6.9 mph - N/A   Clear
1:58 PM 54.9 °F - 28.2 °F 36% 30.31 in 10.0 mi North 6.9 mph - N/A   Clear
2:58 PM 55.4 °F - 26.8 °F 33% 30.30 in 10.0 mi NNE 5.8 mph - N/A   Clear
3:58 PM 55.4 °F - 26.8 °F 33% 30.29 in 10.0 mi ENE 5.8 mph - N/A   Clear
4:58 PM 52.9 °F - 28.8 °F 40% 30.30 in 10.0 mi East 8.1 mph - N/A   Clear
5:58 PM 46.8 °F - 32.4 °F 57% 30.31 in 10.0 mi ENE 3.5 mph - N/A   Scattered Clouds
6:58 PM 43.7 °F - 32.7 °F 65% 30.33 in 10.0 mi Calm Calm - N/A   Scattered Clouds
7:58 PM 47.1 °F - 33.4 °F 59% 30.34 in 10.0 mi NNE 2.3 mph - N/A   Overcast
8:38 PM 46.4 °F 45.2 °F 32.0 °F 57% 30.32 in 10.0 mi NE 3.5 mph - N/A   Overcast
8:48 PM 46.4 °F 45.2 °F 32.0 °F 57% 30.32 in 10.0 mi NE 3.5 mph - N/A   Overcast
8:58 PM 47.5 °F - 32.4 °F 56% 30.33 in 10.0 mi ENE 4.6 mph - N/A   Overcast
9:43 PM 48.2 °F - 32.0 °F 54% 30.30 in 10.0 mi ENE 4.6 mph - N/A   Overcast
9:58 PM 47.8 °F - 33.1 °F 57% 30.32 in 10.0 mi ENE 5.8 mph - N/A   Overcast
10:23 PM 46.4 °F 44.3 °F 32.0 °F 57% 30.29 in 10.0 mi NE 4.6 mph - N/A   Mostly Cloudy
10:38 PM 46.4 °F 44.3 °F 32.0 °F 57% 30.29 in 10.0 mi NE 4.6 mph - N/A   Mostly Cloudy
10:58 PM 46.8 °F - 33.8 °F 61% 30.30 in 10.0 mi NNE 4.6 mph - N/A   Overcast
11:58 PM 46.6 °F - 33.3 °F 60% 30.29 in 10.0 mi North 4.6 mph - N/A   Mostly Cloudy